Home   Weather   Mount Airy   Past weeks
Flag for USA

Past Weather in Mount Airy, North Carolina, USA — Yesterday and Last 2 Weeks

Now
80 °F

Sunny.


Feels Like: 85 °F
Forecast: 92 / 73 °F
Wind: 3 mph from South

Location: Mount Airy/Surry County Airport

Current Time: Jul 21, 2019 at 11:09:43 am

Latest Report: Jul 21, 2019 at 10:00 am


Visibility: 10 mi

Pressure: 30.05 "Hg

Humidity: 86%

Dew Point: 75 °F

Location of Mount AiryLocation

Past Weather in Mount Airy — Graph

°F

Mount Airy Temperature Yesterday

Maximum temperature yesterday: 93 °F (at 1:00 pm)
Minimum temperature yesterday: 74 °F (at 6:40 am)
Average temperature yesterday: 81 °F

High & Low Weather Summary for the Past Weeks

 TemperatureHumidityPressure
High93 °F (Jul 20, 1:00 pm)93% (Jul 17, 4:20 am)30.20 "Hg (Jul 17, 4:20 am)
Low69 °F (Jul 15, 6:20 am)40% (Jul 14, 5:40 pm)29.90 "Hg (Jul 11, 7:20 pm)
Average79 °F80%30.06 "Hg
* Reported Jul 6 9:00 am — Jul 21 9:40 am, Mount Airy. Weather by CustomWeather, © 2019

Note: Actual official high and low records may vary slightly from our data, if they occured in-between our weather recording intervals... More about our weather records

Advertising

Mount Airy Weather History for the Previous 24 Hours

Scroll right to see more
 ConditionsComfort  
Time TempWeatherWind HumidityBarometerVisibility
9:40 am
Sun, Jul 21
80 °FSunny.3 mph84%30.06 "Hg10 mi
9:00 am79 °FSunny.No wind87%30.07 "Hg10 mi
8:40 am77 °FSunny.No wind90%30.07 "Hg10 mi
8:20 am76 °FSunny.No wind91%30.06 "Hg10 mi
8:00 am75 °FSunny.No wind91%30.05 "Hg10 mi
7:40 am73 °FSunny.No wind91%30.06 "Hg10 mi
7:00 am72 °FFog.No wind91%30.04 "Hg4 mi
6:40 am72 °FFog.3 mph91%30.04 "Hg5 mi
6:20 am72 °FSunny.No wind90%30.03 "Hg10 mi
6:00 am72 °FClear.No wind90%30.03 "Hg7 mi
5:40 am73 °FClear.No wind91%30.03 "Hg7 mi
5:20 am73 °FClear.No wind91%30.03 "Hg10 mi
5:00 am73 °FClear.No wind91%30.03 "Hg10 mi
4:40 am73 °FClear.No wind90%30.04 "Hg7 mi
4:20 am74 °FClear.No wind91%30.04 "Hg10 mi
4:00 am73 °FPassing clouds.No wind91%30.04 "Hg10 mi
3:20 am74 °FPassing clouds.No wind91%30.04 "Hg10 mi
3:00 am74 °FPassing clouds.No wind91%30.05 "Hg10 mi
2:40 am73 °FPassing clouds.No wind91%30.05 "Hg10 mi
2:20 am73 °FPassing clouds.No wind91%30.05 "Hg10 mi
2:00 am74 °FClear.No wind91%30.06 "Hg10 mi
1:40 am73 °FClear.No wind91%30.06 "Hg10 mi
1:20 am73 °FClear.No wind91%30.06 "Hg10 mi
1:00 am74 °FClear.No wind91%30.06 "Hg10 mi
12:40 am74 °FClear.No wind91%30.06 "Hg10 mi
12:00 am74 °FClear.No wind91%30.06 "Hg10 mi
11:40 pm
Sat, Jul 20
74 °FClear.No wind91%30.06 "Hg10 mi
11:20 pm75 °FClear.No wind91%30.05 "Hg10 mi
11:00 pm74 °FClear.No wind91%30.05 "Hg10 mi
10:40 pm75 °FClear.No wind90%30.05 "Hg10 mi
10:20 pm76 °FClear.No wind91%30.06 "Hg10 mi
10:00 pm77 °FClear.No wind90%30.06 "Hg10 mi
9:40 pm77 °FClear.No wind90%30.05 "Hg10 mi
9:20 pm77 °FClear.No wind90%30.04 "Hg10 mi
9:00 pm78 °FClear.No wind88%30.05 "Hg10 mi
8:40 pm79 °FClear.No wind86%30.04 "Hg10 mi
8:20 pm80 °FSunny.No wind84%30.05 "Hg10 mi
8:00 pm80 °FSunny.No wind83%30.05 "Hg10 mi
7:40 pm81 °FSunny.No wind83%30.04 "Hg10 mi
7:20 pm81 °FSunny.No wind82%30.04 "Hg10 mi
7:00 pm81 °FSunny.No wind81%30.04 "Hg10 mi
6:40 pm82 °FSunny.No wind79%30.04 "Hg10 mi
6:20 pm81 °FSunny.No wind77%30.04 "Hg10 mi
6:00 pm82 °FSunny.No wind77%30.04 "Hg10 mi
5:40 pm81 °FSunny.No wind75%30.04 "Hg10 mi
5:20 pm81 °FSunny.No wind75%30.06 "Hg10 mi
5:00 pm80 °FSunny.No wind76%30.06 "Hg10 mi
4:40 pm80 °FSunny.No wind76%30.07 "Hg10 mi
4:20 pm80 °FSunny.No wind76%30.07 "Hg10 mi
4:00 pm80 °FSunny.5 mph78%30.07 "Hg10 mi
3:40 pm81 °FSunny.3 mph78%30.07 "Hg10 mi
3:20 pm82 °FSunny.3 mph77%30.07 "Hg10 mi
3:00 pm83 °FSunny.3 mph75%30.06 "Hg10 mi
2:40 pm89 °FScattered clouds.8 mph66%30.06 "Hg10 mi
2:20 pm91 °FScattered clouds.5 mph57%30.04 "Hg10 mi
2:00 pm93 °FSunny.3 mph54%30.04 "Hg10 mi
1:40 pm91 °FScattered clouds.No wind58%30.05 "Hg10 mi
1:20 pm92 °FScattered clouds.3 mph59%30.05 "Hg10 mi
1:00 pm93 °FSunny.No wind54%30.07 "Hg10 mi
12:40 pm93 °FSunny.No wind59%30.07 "Hg10 mi
12:20 pm92 °FSunny.No wind59%30.08 "Hg10 mi
12:00 pm90 °FSunny.3 mph62%30.09 "Hg10 mi
11:40 am89 °FSunny.6 mph66%30.09 "Hg10 mi
11:20 am89 °FSunny.6 mph71%30.09 "Hg10 mi
11:00 am89 °FSunny.5 mph71%30.09 "Hg10 mi
Weather by CustomWeather, © 2019

See weather overview